Wind_Speed
3 2 1 0 4 5 3 0 3 2 3 2 8 8 8 6 3 3 11 6 4 6 9 9 8 6 6 6 6 5 3 5 4 4 4 7 8 9 9 8 8 9 8 2 3 6 11 11 11
4 1 0 2 5 5 3 3 5 2 11 10 8 7 7 3 3 10 10 11 6 6 7 7 8 7 7 6 6 5 4 3 3 3 5 8 8 9 10 8 9 13 10 7 11 14 11 8 9
5 3 2 5 3 4 4 2 4 8 10 7 4 7 4 3 7 12 13 11 7 5 7 8 8 7 9 8 7 6 5 3 1 4 6 9 10 11 12 13 14 15 16 16 17 13 7 9 9
3 3 7 6 4 4 4 4 5 5 2 4 7 6 6 2 4 8 13 10 8 9 10 11 11 10 9 8 8 6 4 3 2 3 3 5 8 11 13 14 15 13 10 12 11 6 4 6 9
3 4 6 5 3 3 2 13 13 5 4 6 4 2 3 4 10 14 12 10 11 13 13 12 10 9 8 7 6 5 3 3 4 4 5 6 7 8 9 9 10 10 10 11 10 6 5 6 9
4 4 6 4 1 2 3 5 7 6 7 10 9 6 3 13 14 15 13 14 13 11 11 9 7 6 5 3 3 2 3 4 5 5 5 6 6 6 6 6 7 8 9 9 9 8 7 7 9
7 4 4 4 3 2 2 0 3 5 5 3 8 5 9 15 14 14 14 13 11 7 5 4 3 3 3 5 6 8 8 6 6 6 6 5 5 4 4 5 6 7 8 9 8 8 7 6 8
5 5 3 3 2 2 2 2 5 4 3 11 5 5 6 19 17 14 12 10 8 6 5 4 2 2 6 9 9 8 7 6 6 6 6 6 6 7 7 7 7 7 7 7 7 7 7 7 8
5 5 2 2 2 2 2 2 2 3 6 3 2 7 4 22 20 18 16 13 10 8 5 2 3 3 8 10 10 7 6 5 5 6 6 7 8 8 7 8 8 9 10 10 9 9 9 9 9
7 5 2 3 3 1 2 2 4 3 1 2 2 4 14 22 23 20 18 13 8 7 5 1 3 5 7 7 6 5 5 5 5 6 7 8 9 8 9 8 8 10 11 12 12 12 12 12 12
3 4 2 3 2 1 3 2 2 10 1 8 11 11 20 21 20 18 17 11 3 4 4 4 5 6 8 7 6 5 6 6 6 7 8 10 11 12 12 12 12 12 12 13 14 15 15 13 12
6 3 3 2 3 3 2 3 2 7 5 5 8 11 18 20 18 18 15 11 10 9 9 9 6 7 9 8 8 8 8 8 8 8 10 11 12 13 14 14 15 15 15 14 15 16 16 16 16
4 2 2 1 5 4 3 3 4 12 8 7 10 17 19 19 14 16 15 13 15 15 12 10 5 7 8 9 11 11 11 10 11 12 14 15 15 16 17 17 18 18 17 17 17 18 18 18 17
2 2 3 3 2 1 1 3 2 3 5 11 16 20 22 21 18 18 22 20 19 16 15 14 8 5 7 9 12 11 11 12 14 16 17 16 17 18 19 19 20 20 20 20 20 20 19 19 18
3 5 6 10 6 4 2 5 5 9 6 9 17 23 24 21 19 20 17 18 16 14 17 15 8 8 9 10 12 10 10 12 14 16 16 17 18 18 19 19 20 20 21 22 22 21 20 19 18
6 6 5 5 8 4 3 8 11 9 6 12 18 23 27 24 22 19 19 20 19 15 17 15 10 9 9 12 12 12 13 14 14 14 15 16 17 18 18 19 20 19 20 22 22 21 21 19 18
7 1 2 7 5 5 4 9 11 18 18 22 16 22 27 27 25 22 21 22 21 19 19 14 10 8 10 11 11 12 13 15 15 16 18 19 19 19 20 21 20 20 20 21 21 22 22 22 21
1 2 3 3 5 6 4 7 9 17 12 14 12 13 20 23 24 21 19 21 19 21 17 13 10 7 9 8 8 9 11 12 15 17 21 22 23 24 25 25 24 23 24 23 24 24 23 22 22
1 2 3 3 2 6 5 6 9 13 15 14 11 5 4 12 13 16 19 19 14 17 16 12 8 7 10 10 10 11 13 15 17 20 22 22 25 29 30 31 30 30 30 28 27 27 27 27 26
1 2 4 5 3 1 6 7 6 10 8 12 14 13 11 10 8 10 10 6 3 6 8 9 9 11 13 13 14 17 20 22 24 26 28 28 28 29 33 36 38 38 37 36 34 34 35 32 31
4 2 2 5 7 1 5 5 7 4 10 12 13 11 11 10 10 9 8 6 3 4 6 7 9 12 16 17 19 21 24 26 27 29 30 29 33 35 36 38 41 43 43 43 42 41 41 39 36
3 1 3 6 3 1 4 2 5 6 5 7 4 4 5 5 5 3 0 2 4 6 8 11 14 16 16 16 16 18 21 26 31 33 33 34 34 36 37 38 38 40 46 49 48 47 44 41 39
6 4 2 2 3 3 7 4 6 5 4 5 9 6 4 3 5 6 7 7 8 10 11 13 11 8 8 9 13 21 28 32 35 39 41 42 37 30 29 30 31 32 37 45 52 49 43 42 40
5 4 5 4 2 3 1 3 5 3 3 4 6 12 13 10 11 9 8 7 6 7 7 7 8 11 13 17 23 28 34 38 41 41 38 36 35 36 36 35 35 35 34 38 41 41 39 37 35
9 6 3 3 4 3 3 1 4 4 6 6 12 19 19 15 9 8 8 6 5 6 8 11 15 19 24 29 32 34 34 33 34 35 36 37 35 35 35 33 31 30 29 29 26 27 26 23 23
3 4 4 2 1 4 4 3 5 3 20 13 10 11 11 15 13 12 11 11 11 13 18 22 26 29 31 31 30 28 28 30 34 37 35 32 31 34 31 29 24 21 20 19 16 15 16 16 17
1 4 2 5 2 2 4 5 2 4 8 16 13 14 14 13 14 14 13 16 22 24 26 27 27 27 26 27 26 27 30 35 39 36 32 27 28 31 28 22 15 14 13 13 14 15 22 15 12
5 3 3 3 2 3 5 5 3 6 8 7 7 15 13 7 11 16 22 22 19 21 23 24 24 25 26 29 30 33 38 41 39 37 27 24 27 27 20 15 12 11 14 19 24 24 14 15 14
4 3 5 4 3 3 2 6 4 4 3 2 5 8 11 9 15 21 24 22 20 24 25 26 26 30 32 34 34 38 40 42 41 31 24 23 19 14 8 8 13 20 22 11 8 11 12 14 17
3 3 4 4 2 1 3 6 2 7 2 2 5 12 15 20 25 25 27 27 23 31 29 30 31 34 33 35 36 41 41 44 33 24 17 9 6 8 9 13 10 9 10 11 14 16 19 21 23
Wind_Direction
135 179 276 311 62 66 75 355 319 48 64 6 84 91 107 54 90 176 134 145 121 144 150 145 139 129 119 118 139 150 155 156 165 182 186 189 189 193 205 199 194 182 176 219 297 302 290 277 270
145 159 125 90 85 69 330 288 142 186 128 101 69 61 57 71 71 127 139 146 138 111 109 114 116 126 121 102 106 115 128 134 145 183 219 221 223 225 229 228 230 220 212 270 301 301 286 274 275
118 140 55 86 104 126 146 30 128 133 112 11 85 67 86 93 100 134 142 142 133 110 105 101 99 104 99 94 87 95 125 176 216 245 236 232 230 238 243 246 246 253 248 274 297 302 284 261 254
159 114 77 81 67 11 129 123 118 117 246 71 111 58 76 101 121 149 145 130 121 124 117 113 108 103 92 80 66 53 42 32 327 261 243 245 251 260 271 273 280 292 296 290 294 305 305 268 263
84 74 62 67 27 3 47 146 159 172 149 137 149 144 64 120 133 139 133 126 133 135 125 118 109 95 75 61 46 23 349 328 271 286 300 295 285 269 272 274 280 287 282 278 283 293 281 254 246
67 74 64 86 46 21 20 129 146 148 138 122 108 100 115 130 130 130 127 125 137 138 122 109 109 95 73 46 33 339 341 303 307 308 302 306 307 303 299 294 289 288 290 296 300 296 288 285 271
106 77 127 126 138 84 178 48 111 118 112 123 129 109 153 163 143 127 124 133 141 132 111 101 108 73 20 6 1 6 360 344 325 314 312 305 294 291 283 276 275 275 276 279 276 277 281 282 287
94 90 86 26 95 111 317 96 110 73 73 129 139 167 174 172 156 147 143 146 153 154 133 97 62 8 357 349 352 2 21 27 9 336 311 296 295 300 294 288 285 289 288 286 280 279 280 278 284
83 62 74 136 99 293 5 106 111 104 144 154 151 165 162 171 170 172 176 174 177 173 154 129 36 358 350 344 337 351 7 2 349 330 312 294 294 295 286 291 295 301 300 294 287 283 283 287 284
78 87 161 173 168 83 32 98 144 150 107 74 153 170 164 177 181 185 191 190 187 191 184 198 345 340 333 323 324 319 325 340 334 328 301 292 295 292 286 291 295 299 298 294 290 287 285 284 287
79 134 173 47 85 147 313 332 155 137 259 199 195 178 174 183 189 197 202 208 202 207 219 256 290 327 336 326 317 290 294 309 312 317 312 300 294 293 289 288 293 293 291 293 292 295 298 296 295
75 80 142 153 172 142 242 310 264 204 231 217 211 195 187 190 201 204 210 219 220 224 235 244 267 321 345 336 319 299 290 288 294 295 302 301 295 292 289 289 291 293 290 291 290 290 291 292 294
86 135 155 229 183 224 257 257 283 268 259 238 210 192 198 199 211 220 227 231 229 232 239 243 285 336 352 349 333 303 295 293 294 298 300 302 300 297 293 289 290 290 288 290 291 292 291 290 291
341 7 346 352 294 306 211 283 342 296 292 245 216 203 202 206 209 217 222 228 233 237 238 236 256 314 333 336 339 320 303 300 303 303 300 297 296 295 292 290 290 289 288 289 290 292 291 291 291
45 42 19 13 333 36 11 326 237 251 309 266 231 216 207 209 209 216 226 230 238 242 235 237 259 295 318 321 334 332 315 311 310 307 301 299 298 296 295 297 296 294 293 291 291 291 290 289 289
41 51 25 336 4 34 71 276 278 295 290 297 249 225 216 214 217 225 230 241 240 241 232 234 258 296 311 324 328 327 324 323 322 319 311 305 300 295 294 298 297 292 292 290 288 289 289 286 284
11 56 359 321 64 2 58 278 286 317 300 284 272 242 226 221 223 231 240 245 241 236 230 235 266 305 320 320 321 322 320 323 322 320 317 314 309 302 295 297 295 290 289 286 280 279 280 280 281
325 345 311 267 317 351 318 275 301 327 290 298 291 265 236 229 233 241 250 247 242 234 232 235 260 302 310 308 318 324 328 330 327 332 321 316 309 305 299 297 295 287 282 283 277 279 277 274 275
137 223 260 253 252 353 323 299 322 6 45 31 33 43 208 219 240 249 253 243 236 234 234 237 261 285 301 304 303 304 320 327 330 337 337 320 311 305 299 295 290 285 280 283 282 277 274 274 274
57 353 318 290 269 149 353 325 326 15 39 52 66 81 104 114 98 72 59 75 191 213 223 239 271 285 290 292 298 293 296 302 312 319 319 318 310 306 303 299 294 287 280 276 273 270 269 269 268
334 204 250 242 330 54 343 349 9 12 60 62 64 85 94 91 95 92 96 100 156 219 268 276 285 280 279 281 281 285 288 292 298 304 301 298 300 298 295 291 286 279 277 275 271 269 266 264 264
310 161 321 293 47 237 29 247 353 336 31 26 49 73 71 101 122 91 283 293 278 260 254 262 268 275 282 288 297 302 303 306 310 307 303 304 299 296 291 288 286 279 272 270 271 268 261 258 253
244 347 239 210 152 96 345 70 293 357 19 8 21 28 21 266 241 250 247 257 250 252 257 264 278 299 307 312 311 307 304 301 301 304 303 305 305 301 296 295 295 288 277 271 266 263 252 247 244
300 31 44 46 87 50 326 111 310 326 331 33 20 1 346 323 290 273 277 269 273 285 299 318 315 309 301 299 305 308 306 304 306 307 310 310 309 306 301 298 294 289 279 271 268 261 243 237 234
25 41 354 4 11 210 260 87 206 330 84 68 358 359 354 353 351 314 314 323 347 4 357 338 326 317 311 308 307 306 308 310 311 312 313 310 307 304 303 302 298 291 277 260 240 228 218 211 215
5 97 131 212 317 285 318 189 196 155 68 25 14 357 17 34 42 53 50 37 17 357 341 327 319 311 307 311 313 313 311 314 317 320 315 309 309 310 309 309 302 282 245 217 208 214 226 237 278
336 49 151 105 350 32 279 313 289 177 24 28 53 37 30 41 44 42 26 0 344 333 325 318 312 312 315 317 319 319 319 321 322 321 317 306 305 307 306 297 269 228 222 234 240 280 313 315 311
97 137 40 12 61 288 307 294 244 43 344 4 29 23 16 15 13 352 343 337 329 327 325 325 323 329 333 333 331 327 324 323 324 326 310 301 296 300 287 261 247 259 285 288 294 310 327 320 319
357 28 57 107 124 175 290 267 203 152 351 39 32 13 9 351 334 330 332 324 312 328 328 333 333 333 333 331 329 328 327 328 328 325 311 301 292 278 262 281 297 291 293 306 320 313 302 291 292
111 114 97 107 289 207 165 269 207 133 187 127 4 357 348 337 330 326 326 327 324 332 333 330 332 331 328 328 328 329 330 329 325 322 309 285 243 256 292 286 314 321 314 313 309 302 297 297 298
Height
1505 1506 1505 1506 1517 1523 1537 1533 1525 1525 1527 1526 1525 1526 1530 1532 1533 1541 1537 1541 1543 1542 1543 1544 1546 1545 1547 1547 1548 1548 1550 1548 1549 1551 1553 1555 1553 1554 1557 1553 1553 1554 1555 1554 1557 1555 1555 1556 1557
1504 1505 1508 1506 1529 1544 1540 1527 1526 1524 1527 1526 1526 1528 1530 1536 1536 1537 1538 1541 1543 1544 1546 1547 1547 1547 1547 1548 1548 1547 1549 1552 1551 1552 1554 1553 1553 1554 1554 1553 1553 1556 1554 1554 1554 1555 1554 1555 1555
1505 1507 1507 1517 1540 1541 1537 1524 1527 1525 1526 1528 1528 1530 1532 1537 1536 1537 1538 1542 1542 1544 1545 1547 1547 1549 1547 1549 1550 1551 1549 1552 1552 1553 1553 1555 1552 1552 1552 1551 1552 1553 1554 1553 1554 1553 1553 1554 1554
1506 1508 1511 1524 1532 1526 1525 1527 1527 1528 1528 1528 1530 1533 1537 1537 1537 1539 1540 1541 1544 1546 1547 1549 1549 1550 1549 1550 1550 1552 1551 1550 1552 1554 1553 1552 1553 1551 1552 1552 1553 1553 1552 1552 1552 1552 1552 1552 1552
1506 1508 1524 1533 1530 1526 1524 1526 1527 1528 1529 1530 1530 1534 1537 1538 1537 1539 1541 1543 1544 1545 1548 1550 1550 1551 1551 1553 1552 1552 1552 1550 1553 1552 1552 1552 1551 1551 1551 1552 1551 1550 1549 1549 1549 1549 1549 1550 1549
1506 1511 1537 1544 1532 1525 1525 1527 1528 1528 1528 1531 1532 1532 1538 1540 1540 1539 1542 1544 1547 1548 1547 1549 1551 1552 1553 1552 1550 1553 1550 1552 1552 1551 1550 1550 1550 1550 1550 1549 1549 1548 1548 1547 1547 1547 1548 1547 1547
1507 1520 1536 1538 1534 1529 1528 1528 1528 1526 1529 1531 1532 1533 1537 1538 1541 1541 1543 1546 1549 1548 1549 1551 1553 1553 1553 1552 1551 1551 1550 1550 1550 1551 1550 1550 1550 1550 1549 1548 1547 1546 1546 1546 1546 1546 1546 1545 1544
1507 1517 1531 1534 1536 1534 1527 1528 1527 1527 1530 1533 1533 1534 1537 1538 1540 1540 1544 1547 1549 1548 1549 1551 1552 1553 1552 1551 1549 1550 1549 1549 1549 1549 1550 1550 1550 1550 1549 1548 1547 1547 1546 1546 1545 1544 1543 1543 1543
1510 1528 1540 1533 1531 1530 1527 1527 1527 1528 1530 1531 1532 1531 1533 1535 1538 1539 1543 1547 1548 1549 1549 1551 1551 1551 1551 1549 1549 1549 1550 1549 1550 1549 1550 1550 1550 1549 1549 1548 1547 1546 1545 1544 1544 1543 1543 1542 1541
1513 1532 1529 1527 1527 1528 1527 1528 1528 1529 1530 1528 1528 1529 1532 1534 1536 1538 1541 1544 1545 1547 1548 1549 1550 1550 1550 1549 1549 1548 1549 1549 1549 1549 1549 1549 1549 1548 1548 1547 1546 1545 1544 1542 1542 1542 1541 1540 1540
1516 1529 1525 1525 1527 1529 1531 1531 1530 1530 1530 1527 1527 1527 1531 1535 1536 1538 1541 1543 1544 1546 1547 1548 1548 1548 1548 1547 1546 1547 1547 1547 1548 1548 1548 1548 1547 1547 1546 1545 1545 1544 1542 1541 1540 1538 1537 1537 1536
1523 1526 1527 1526 1530 1528 1531 1530 1531 1529 1527 1525 1527 1527 1530 1532 1534 1536 1539 1541 1543 1544 1546 1547 1547 1548 1547 1546 1545 1546 1546 1545 1546 1546 1546 1546 1545 1544 1544 1543 1542 1541 1540 1539 1538 1537 1536 1534 1533
1523 1525 1525 1527 1527 1527 1528 1530 1529 1528 1525 1524 1525 1527 1529 1531 1533 1535 1537 1540 1541 1543 1544 1545 1546 1547 1546 1545 1545 1544 1544 1544 1544 1544 1544 1544 1543 1543 1542 1541 1540 1538 1537 1535 1534 1533 1532 1532 1531
1522 1523 1525 1526 1526 1527 1525 1528 1528 1525 1524 1523 1524 1524 1527 1530 1531 1533 1535 1537 1539 1541 1542 1544 1545 1544 1544 1545 1545 1543 1542 1542 1542 1542 1542 1541 1541 1540 1539 1538 1537 1535 1534 1533 1532 1531 1530 1529 1528
1522 1524 1525 1527 1526 1528 1527 1528 1527 1524 1523 1521 1521 1524 1526 1527 1531 1531 1533 1535 1538 1539 1542 1543 1544 1544 1545 1545 1543 1542 1541 1540 1540 1539 1539 1538 1538 1537 1536 1534 1533 1532 1531 1530 1529 1528 1527 1526 1525
1530 1533 1544 1530 1528 1529 1528 1538 1523 1522 1522 1521 1520 1522 1524 1526 1528 1531 1534 1536 1538 1539 1541 1543 1544 1544 1544 1544 1542 1541 1540 1539 1538 1536 1536 1536 1535 1534 1533 1531 1529 1529 1528 1526 1525 1524 1523 1523 1522
1543 1549 1544 1539 1532 1532 1533 1535 1520 1521 1520 1517 1518 1519 1522 1525 1528 1530 1532 1533 1536 1538 1541 1542 1543 1543 1543 1541 1541 1540 1538 1537 1535 1534 1533 1532 1531 1530 1528 1527 1525 1524 1522 1521 1520 1519 1519 1518 1518
1547 1547 1543 1543 1535 1534 1535 1533 1523 1517 1516 1515 1515 1516 1519 1525 1528 1529 1531 1532 1533 1536 1538 1540 1542 1542 1541 1540 1539 1538 1536 1535 1533 1531 1529 1528 1527 1525 1524 1522 1520 1520 1518 1516 1515 1514 1513 1513 1513
1539 1544 1544 1540 1535 1536 1536 1534 1525 1519 1516 1517 1516 1517 1520 1525 1527 1528 1527 1528 1530 1533 1536 1538 1539 1539 1538 1537 1537 1536 1535 1533 1530 1528 1527 1525 1523 1521 1519 1517 1515 1514 1513 1512 1511 1510 1508 1507 1507
1539 1542 1545 1539 1536 1536 1535 1533 1528 1523 1524 1523 1522 1521 1523 1525 1526 1526 1526 1527 1530 1532 1535 1536 1537 1537 1536 1535 1534 1533 1531 1530 1528 1526 1523 1521 1519 1517 1514 1511 1509 1508 1506 1504 1503 1502 1500 1501 1501
1541 1541 1542 1544 1539 1535 1537 1535 1533 1528 1526 1526 1526 1526 1527 1528 1528 1529 1529 1530 1531 1532 1533 1535 1535 1534 1533 1532 1531 1529 1528 1526 1523 1522 1519 1517 1513 1510 1507 1504 1501 1499 1497 1494 1494 1493 1492 1492 1493
1546 1537 1539 1541 1545 1550 1541 1553 1538 1536 1532 1530 1529 1530 1531 1530 1530 1530 1530 1530 1532 1533 1533 1532 1532 1531 1530 1528 1527 1525 1523 1520 1518 1514 1511 1509 1506 1502 1498 1494 1491 1488 1488 1485 1484 1484 1484 1485 1484
1542 1536 1538 1538 1544 1546 1548 1555 1545 1538 1537 1536 1535 1534 1533 1532 1532 1532 1532 1532 1531 1531 1531 1530 1529 1528 1527 1525 1523 1520 1517 1514 1509 1506 1501 1498 1495 1491 1487 1484 1481 1477 1475 1475 1475 1474 1476 1476 1477
1536 1537 1540 1545 1549 1562 1550 1555 1555 1546 1542 1540 1538 1536 1535 1534 1533 1533 1533 1532 1531 1530 1530 1529 1528 1526 1524 1523 1520 1516 1512 1507 1502 1498 1493 1488 1485 1481 1477 1473 1470 1467 1465 1463 1463 1463 1465 1465 1467
1541 1549 1566 1562 1569 1565 1551 1554 1552 1542 1542 1541 1538 1535 1533 1530 1529 1530 1529 1529 1529 1529 1528 1527 1525 1524 1522 1519 1515 1511 1506 1502 1496 1491 1485 1481 1476 1472 1469 1464 1460 1458 1456 1455 1456 1457 1457 1458 1458
1548 1553 1577 1570 1580 1573 1553 1554 1549 1541 1542 1542 1539 1537 1535 1532 1532 1531 1531 1531 1530 1529 1527 1526 1523 1521 1518 1513 1509 1505 1500 1496 1491 1485 1479 1475 1471 1467 1462 1458 1453 1452 1451 1452 1453 1453 1454 1454 1455
1549 1561 1556 1572 1577 1582 1564 1550 1541 1541 1542 1542 1541 1539 1537 1536 1536 1534 1534 1533 1530 1528 1527 1524 1520 1517 1512 1507 1503 1499 1494 1488 1483 1477 1474 1469 1465 1462 1457 1456 1452 1450 1451 1450 1450 1451 1450 1449 1450
1548 1553 1565 1576 1589 1575 1566 1558 1551 1548 1547 1545 1544 1541 1540 1539 1538 1537 1535 1532 1529 1527 1524 1520 1516 1511 1507 1502 1496 1491 1489 1484 1478 1472 1467 1462 1459 1457 1454 1454 1454 1452 1451 1448 1448 1446 1447 1447 1448
1557 1560 1564 1568 1578 1589 1585 1565 1545 1547 1545 1543 1541 1541 1541 1540 1538 1534 1531 1528 1524 1522 1518 1514 1509 1504 1499 1495 1491 1487 1481 1475 1468 1464 1461 1458 1457 1455 1453 1454 1453 1450 1448 1447 1445 1446 1447 1447 1446
1555 1560 1565 1582 1577 1585 1589 1565 1541 1540 1541 1540 1540 1540 1539 1537 1534 1531 1527 1524 1521 1517 1512 1508 1504 1500 1496 1492 1487 1481 1475 1468 1461 1456 1455 1455 1456 1455 1453 1448 1448 1448 1448 1446 1444 1443 1443 1442 1440